Terminal Aerodrome Forecast
Issued by NWS

Home | Current Version | Previous Version | Text Only | Print | Product List | Glossary On
Versions: 1 2 3 4 5 6 7 8 9 10 11 12 13 14 15 16 17 18 19 20 21 22 23 24 25 26 27 28 29
893
FTUS43 KSGF 160205 AAA
TAFJLN
TAF AMD
KJLN 160205Z 1602/1624 12004KT P6SM VCTS SCT060CB BKN150
      TEMPO 1602/1605 -SHRA BKN040 OVC060
     FM161800 20010KT P6SM BKN110
     FM162300 19009KT P6SM SCT150=

USA.gov is the U.S. government's official web portal to all federal, state and local government web resources and services.